CW1575 Weather Reports


Display with metric or nautical units.
time (UTC)temp
F
wind
direction
speed
MPH
gust
MPH
rain 1hr
in
rain 24hr
in
rain mn
in
humidity
%
barometer
mb
20171119213504 58 47 2.0 3.0 0.00 0.00 0.00 13 1013.9
20171119213005 58 42 2.0 3.0 0.00 0.00 0.00 14 1013.9
20171119212505 58 23 1.0 3.0 0.00 0.00 0.00 14 1014.0
20171119212005 59 23 3.0 6.0 0.00 0.00 0.00 14 1014.1
20171119211505 59 32 3.0 7.0 0.00 0.00 0.00 15 1014.2
20171119211004 59 337 2.0 8.0 0.00 0.00 0.00 14 1014.3
20171119210505 59 354 3.0 7.0 0.00 0.00 0.00 14 1014.1
20171119210005 59 14 3.0 8.0 0.00 0.00 0.00 14 1014.1
20171119205505 59 344 3.0 8.0 0.00 0.00 0.00 14 1014.2
20171119205005 60 2 4.0 10.0 0.00 0.00 0.00 14 1014.1
20171119204505 61 18 7.0 12.0 0.00 0.00 0.00 14 1014.3
20171119204005 61 22 5.0 12.0 0.00 0.00 0.00 16 1014.4
20171119203504 61 26 3.0 9.0 0.00 0.00 0.00 15 1014.5
20171119203004 61 324 4.0 10.0 0.00 0.00 0.00 16 1014.5
20171119202504 61 320 4.0 6.0 0.00 0.00 0.00 15 1014.6
20171119202004 61 44 2.0 3.0 0.00 0.00 0.00 16 1014.6
20171119201504 61 113 2.0 6.0 0.00 0.00 0.00 15 1014.6
20171119201004 61 115 1.0 2.0 0.00 0.00 0.00 16 1014.7
20171119200505 61 115 1.0 3.0 0.00 0.00 0.00 16 1014.8
20171119200006 60 115 1.0 3.0 0.00 0.00 0.00 16 1014.8
20171119195504 60 115 1.0 3.0 0.00 0.00 0.00 17 1014.8
20171119195005 60 106 3.0 6.0 0.00 0.00 0.00 17 1014.9
20171119194504 59 169 2.0 6.0 0.00 0.00 0.00 18 1015.0
20171119194004 58 147 3.0 8.0 0.00 0.00 0.00 18 1015.0
20171119193505 58 132 5.0 7.0 0.00 0.00 0.00 18 1015.4
20171119193004 57 124 4.0 8.0 0.00 0.00 0.00 19 1015.4
20171119192504 57 131 3.0 8.0 0.00 0.00 0.00 19 1015.4
20171119192005 57 151 2.0 5.0 0.00 0.00 0.00 20 1015.4
20171119191505 56 123 4.0 8.0 0.00 0.00 0.00 19 1015.6
20171119191005 56 127 3.0 7.0 0.00 0.00 0.00 20 1015.7
20171119190504 56 122 5.0 8.0 0.00 0.00 0.00 19 1015.7
20171119190005 56 137 3.0 6.0 0.00 0.00 0.00 20 1015.5
20171119185504 56 157 5.0 9.0 0.00 0.00 0.00 21 1015.6
20171119185005 55 149 3.0 8.0 0.00 0.00 0.00 22 1015.8
20171119184504 55 151 2.0 6.0 0.00 0.00 0.00 22 1016.0
20171119184004 55 156 3.0 8.0 0.00 0.00 0.00 23 1016.2
20171119183504 54 161 2.0 8.0 0.00 0.00 0.00 24 1016.3
20171119183005 54 145 4.0 8.0 0.00 0.00 0.00 24 1016.4
20171119182505 53 134 5.0 10.0 0.00 0.00 0.00 25 1016.6
20171119182004 52 126 3.0 7.0 0.00 0.00 0.00 28 1016.7
20171119181507 51 181 1.0 7.0 0.00 0.00 0.00 31 1016.9
20171119181005 50 129 3.0 5.0 0.00 0.00 0.00 31 1017.2
20171119180504 49 149 3.0 8.0 0.00 0.00 0.00 33 1017.4
20171119180005 48 149 2.0 5.0 0.00 0.00 0.00 35 1017.1
20171119175504 47 131 2.0 7.0 0.00 0.00 0.00 35 1017.3
20171119175006 46 197 3.0 7.0 0.00 0.00 0.00 37 1017.4
20171119174505 45 154 3.0 6.0 0.00 0.00 0.00 37 1017.4
20171119174004 44 152 3.0 3.0 0.00 0.00 0.00 38 1017.5
20171119173505 43 150 2.0 3.0 0.00 0.00 0.00 39 1017.4
20171119173005 42 173 3.0 6.0 0.00 0.00 0.00 39 1017.5
20171119172504 41 181 2.0 5.0 0.00 0.00 0.00 40 1017.7
20171119172004 41 177 4.0 7.0 0.00 0.00 0.00 41 1017.7
20171119171505 40 150 2.0 3.0 0.00 0.00 0.00 42 1017.8
20171119171005 40 130 2.0 3.0 0.00 0.00 0.00 42 1018.0
20171119170504 39 127 3.0 3.0 0.00 0.00 0.00 44 1018.0
20171119170004 38 148 2.0 3.0 0.00 0.00 0.00 45 1017.8
20171119165504 37 180 2.0 3.0 0.00 0.00 0.00 49 1017.7
20171119165004 37 165 1.0 3.0 0.00 0.00 0.00 51 1017.9
20171119164504 36 129 1.0 2.0 0.00 0.00 0.00 52 1018.0
20171119164004 36 129 0.0 2.0 0.00 0.00 0.00 55 1018.1
20171119163504 35 129 1.0 2.0 0.00 0.00 0.00 56 1018.3
20171119163004 35 129 1.0 3.0 0.00 0.00 0.00 57 1018.3
20171119162504 34 182 1.0 2.0 0.00 0.00 0.00 59 1018.3
20171119162004 34 182 0.0 3.0 0.00 0.00 0.00 59 1018.2
20171119161504 33 193 1.0 3.0 0.00 0.00 0.00 61 1018.3
20171119161005 33 91 0.0 3.0 0.00 0.00 0.00 62 1018.4
20171119160504 32 90 1.0 3.0 0.00 0.00 0.00 63 1018.4
20171119160004 32 90 0.0 2.0 0.00 0.00 0.00 64 1018.5
20171119155504 31 90 2.0 6.0 0.00 0.00 0.00 65 1018.7
20171119155005 31 111 1.0 3.0 0.00 0.00 0.00 69 1018.7
20171119154505 30 83 1.0 3.0 0.00 0.00 0.00 72 1018.7
20171119154008 29 241 0.0 2.0 0.00 0.00 0.00 72 1018.8
20171119153505 29 241 0.0 1.0 0.00 0.00 0.00 72 1018.8
20171119153005 29 241 0.0 1.0 0.00 0.00 0.00 73 1018.8
20171119152505 28 241 0.0 1.0 0.00 0.00 0.00 73 1019.0
20171119152005 28 241 0.0 0.0 0.00 0.00 0.00 73 1019.0
20171119151505 28 241 0.0 1.0 0.00 0.00 0.00 74 1019.0
20171119151005 28 241 1.0 2.0 0.00 0.00 0.00 74 1018.8
20171119150505 27 241 1.0 3.0 0.00 0.00 0.00 74 1019.1
20171119150005 27 29 1.0 3.0 0.00 0.00 0.00 75 1019.2
20171119145504 27 30 2.0 3.0 0.00 0.00 0.00 76 1019.2
20171119145004 26 213 1.0 3.0 0.00 0.00 0.00 77 1019.1
20171119144504 26 213 1.0 2.0 0.00 0.00 0.00 78 1018.9
20171119144005 26 213 2.0 3.0 0.00 0.00 0.00 79 1019.0
20171119143504 26 207 2.0 5.0 0.00 0.00 0.00 79 1019.2
20171119143004 26 224 1.0 3.0 0.00 0.00 0.00 78 1019.2
20171119142504 25 30 1.0 3.0 0.00 0.00 0.00 78 1019.2
20171119142004 25 35 1.0 2.0 0.00 0.00 0.00 77 1019.2
20171119141504 25 35 0.0 0.0 0.00 0.00 0.00 77 1019.3
20171119141005 25 35 0.0 1.0 0.00 0.00 0.00 77 1019.1
20171119140504 25 35 1.0 3.0 0.00 0.00 0.00 77 1019.1
20171119140004 25 35 2.0 3.0 0.00 0.00 0.00 77 1019.1
20171119135504 25 28 0.0 8.0 0.00 0.00 0.00 76 1019.1
20171119135004 25 38 3.0 6.0 0.00 0.00 0.00 76 1019.1
20171119134504 25 53 1.0 3.0 0.00 0.00 0.00 76 1019.0
20171119134004 25 53 0.0 1.0 0.00 0.00 0.00 76 1019.1
20171119133505 25 53 0.0 2.0 0.00 0.00 0.00 76 1019.1
20171119133005 25 53 0.0 0.0 0.00 0.00 0.00 76 1019.2
20171119132504 25 53 0.0 2.0 0.00 0.00 0.00 76 1019.2
20171119132004 24 336 0.0 1.0 0.00 0.00 0.00 76 1019.2
20171119131504 24 336 1.0 2.0 0.00 0.00 0.00 76 1019.3
20171119131005 24 336 2.0 3.0 0.00 0.00 0.00 76 1019.4
20171119130505 24 40 0.0 0.0 0.00 0.00 0.00 77 1019.4
20171119130005 24 40 0.0 2.0 0.00 0.00 0.00 77 1019.5
20171119125505 24 40 0.0 2.0 0.00 0.00 0.00 77 1019.5
20171119125004 24 40 2.0 3.0 0.00 0.00 0.00 77 1019.4
20171119124504 24 40 0.0 2.0 0.00 0.00 0.00 78 1019.4
20171119124006 24 40 1.0 2.0 0.00 0.00 0.00 78 1019.2
20171119123504 24 40 0.0 2.0 0.00 0.00 0.00 78 1019.2
20171119123005 24 40 1.0 2.0 0.00 0.00 0.00 78 1019.5
20171119122505 24 40 0.0 0.0 0.00 0.00 0.00 79 1019.5
20171119122005 24 40 1.0 2.0 0.00 0.00 0.00 79 1019.5
20171119121505 24 40 2.0 5.0 0.00 0.00 0.00 79 1019.5
20171119121004 23 213 1.0 3.0 0.00 0.00 0.00 80 1019.0
20171119120505 23 213 2.0 3.0 0.00 0.00 0.00 80 1019.1
20171119120004 23 205 2.0 5.0 0.00 0.00 0.00 80 1019.2
20171119115504 23 136 1.0 3.0 0.00 0.00 0.00 79 1019.2
20171119115005 23 136 0.0 2.0 0.00 0.00 0.00 79 1019.3
20171119114504 23 136 0.0 2.0 0.00 0.00 0.00 78 1019.3
20171119114005 23 136 0.0 0.0 0.00 0.00 0.00 78 1019.3
20171119113504 23 136 0.0 1.0 0.00 0.00 0.00 78 1019.1
20171119113004 23 136 0.0 0.0 0.00 0.00 0.00 78 1019.0
20171119112505 23 136 0.0 0.0 0.00 0.00 0.00 78 1019.1
20171119112005 23 136 0.0 0.0 0.00 0.00 0.00 78 1019.4
20171119111504 23 136 0.0 0.0 0.00 0.00 0.00 79 1019.6
20171119111004 23 136 0.0 0.0 0.00 0.00 0.00 79 1019.6
20171119110504 24 136 0.0 2.0 0.00 0.00 0.00 79 1019.6
20171119110005 24 136 1.0 2.0 0.00 0.00 0.00 79 1019.6
20171119105504 24 136 0.0 3.0 0.00 0.00 0.00 79 1019.8
20171119105005 24 136 0.0 2.0 0.00 0.00 0.00 79 1019.7
20171119104505 24 136 1.0 2.0 0.00 0.00 0.00 79 1019.7
20171119104005 24 136 0.0 1.0 0.00 0.00 0.00 79 1019.9
20171119103504 24 136 0.0 2.0 0.00 0.00 0.00 79 1019.8
20171119103004 24 136 0.0 0.0 0.00 0.00 0.00 79 1020.1
20171119102504 24 136 0.0 0.0 0.00 0.00 0.00 78 1020.1
20171119102004 24 136 1.0 2.0 0.00 0.00 0.00 78 1020.0
20171119101505 24 136 0.0 2.0 0.00 0.00 0.00 78 1020.0
20171119101004 24 136 0.0 1.0 0.00 0.00 0.00 78 1020.2
20171119100504 24 136 0.0 0.0 0.00 0.00 0.00 78 1020.3
20171119100005 24 136 1.0 2.0 0.00 0.00 0.00 78 1020.3
20171119095505 24 136 0.0 0.0 0.00 0.00 0.00 78 1020.4
20171119095005 25 136 0.0 0.0 0.00 0.00 0.00 78 1020.4
20171119094505 25 136 0.0 0.0 0.00 0.00 0.00 78 1020.3
20171119094005 25 136 1.0 2.0 0.00 0.00 0.00 78 1020.3
20171119093504 25 136 0.0 3.0 0.00 0.00 0.00 78 1020.5
20171119093004 25 203 0.0 3.0 0.00 0.00 0.00 78 1020.5
20171119092505 25 209 0.0 0.0 0.00 0.00 0.00 78 1020.5
20171119092005 25 209 0.0 3.0 0.00 0.00 0.00 78 1020.7
20171119091504 25 209 0.0 3.0 0.00 0.00 0.00 78 1020.7
20171119091004 25 119 0.0 0.0 0.00 0.00 0.00 78 1020.7
20171119090505 25 119 0.0 0.0 0.00 0.00 0.00 78 1020.6
20171119090004 25 119 0.0 0.0 0.00 0.00 0.00 77 1020.8
20171119085504 25 119 0.0 0.0 0.00 0.00 0.00 77 1020.6
20171119085005 25 119 1.0 2.0 0.00 0.00 0.00 77 1020.6
20171119084505 25 141 1.0 3.0 0.00 0.00 0.00 77 1020.6
20171119084005 25 141 0.0 0.0 0.00 0.00 0.00 77 1020.7
20171119083504 25 141 0.0 3.0 0.00 0.00 0.00 77 1020.7
20171119083004 25 141 1.0 3.0 0.00 0.00 0.00 76 1020.7
20171119082504 26 142 0.0 0.0 0.00 0.00 0.00 76 1020.7
20171119082004 26 142 1.0 2.0 0.00 0.00 0.00 76 1020.5
20171119081504 26 142 1.0 1.0 0.00 0.00 0.00 76 1020.4
20171119081004 26 142 0.0 1.0 0.00 0.00 0.00 75 1020.3
20171119080504 26 142 1.0 2.0 0.00 0.00 0.00 75 1020.3
20171119080005 26 142 0.0 2.0 0.00 0.00 0.00 75 1020.7
20171119075504 26 142 0.0 2.0 0.00 0.00 0.00 75 1020.6
20171119075005 26 142 1.0 2.0 0.00 0.00 0.00 75 1020.6
20171119074504 26 142 1.0 2.0 0.00 0.00 0.00 74 1020.6
20171119074004 26 142 0.0 0.0 0.00 0.00 0.00 74 1020.7
20171119073505 26 142 0.0 1.0 0.00 0.00 0.00 74 1020.8
20171119073004 27 142 0.0 0.0 0.00 0.00 0.00 74 1020.7
20171119072504 27 142 0.0 0.0 0.00 0.00 0.00 74 1020.7
20171119072004 27 142 1.0 2.0 0.00 0.00 0.00 74 1020.8
20171119071504 27 142 1.0 2.0 0.00 0.00 0.00 74 1021.0
20171119071005 27 142 1.0 2.0 0.00 0.00 0.00 74 1020.9
20171119070504 27 142 0.0 0.0 0.00 0.00 0.00 73 1020.8
20171119070004 27 142 0.0 1.0 0.00 0.00 0.00 73 1020.8
20171119065505 27 142 0.0 0.0 0.00 0.00 0.00 73 1020.8
20171119065004 27 142 0.0 1.0 0.00 0.00 0.00 72 1020.8
20171119064504 27 142 0.0 2.0 0.00 0.00 0.00 72 1020.9
20171119064004 28 142 0.0 0.0 0.00 0.00 0.00 71 1020.9
20171119063505 28 142 1.0 2.0 0.00 0.00 0.00 71 1021.1
20171119063005 28 142 0.0 1.0 0.00 0.00 0.00 71 1020.9
20171119062505 28 142 0.0 1.0 0.00 0.00 0.00 71 1020.9
20171119062005 28 142 0.0 1.0 0.00 0.00 0.00 71 1020.9
20171119061505 28 142 0.0 0.0 0.00 0.00 0.00 71 1020.9
20171119061004 28 142 0.0 3.0 0.00 0.00 0.00 71 1020.7
20171119060504 28 142 0.0 2.0 0.00 0.00 0.00 71 1021.2
20171119060005 28 142 2.0 3.0 0.00 0.00 0.00 71 1021.2
20171119055505 29 142 0.0 2.0 0.00 0.00 0.00 71 1021.3
20171119055005 29 142 1.0 2.0 0.00 0.00 0.00 72 1021.4
20171119054504 29 142 0.0 0.0 0.00 0.00 0.00 72 1021.3
20171119054005 29 142 0.0 2.0 0.00 0.00 0.00 72 1021.2
20171119053504 29 139 0.0 2.0 0.00 0.00 0.00 72 1021.1
20171119053004 29 130 0.0 0.0 0.00 0.00 0.00 72 1021.1
20171119052504 30 130 0.0 0.0 0.00 0.00 0.00 72 1021.2
20171119052005 30 130 0.0 0.0 0.00 0.00 0.00 72 1021.2
20171119051504 30 130 0.0 1.0 0.00 0.00 0.00 72 1021.2
20171119051005 30 130 1.0 2.0 0.00 0.00 0.00 72 1021.2
20171119050504 30 130 0.0 0.0 0.00 0.00 0.00 72 1021.0
20171119050004 30 130 0.0 0.0 0.00 0.00 0.00 72 1021.1
20171119045504 30 130 0.0 3.0 0.00 0.00 0.00 71 1021.1
20171119045004 30 130 2.0 3.0 0.00 0.00 0.00 71 1021.2
20171119044504 30 222 0.0 0.0 0.00 0.00 0.00 70 1021.1
20171119044005 30 222 0.0 0.0 0.00 0.00 0.00 70 1021.2
20171119043504 30 222 0.0 0.0 0.00 0.00 0.00 70 1021.2
20171119043004 31 222 0.0 0.0 0.00 0.00 0.00 70 1021.2
20171119042504 31 222 0.0 0.0 0.00 0.00 0.00 70 1021.1
20171119042005 31 222 0.0 0.0 0.00 0.00 0.00 70 1021.2
20171119041505 31 222 0.0 0.0 0.00 0.00 0.00 69 1021.3
20171119041005 31 222 0.0 0.0 0.00 0.00 0.00 69 1021.3
20171119040504 31 222 0.0 0.0 0.00 0.00 0.00 68 1021.3
20171119040005 32 222 0.0 0.0 0.00 0.00 0.00 68 1021.4
20171119035505 32 222 0.0 0.0 0.00 0.00 0.00 68 1021.5
20171119035005 32 222 0.0 0.0 0.00 0.00 0.00 67 1021.3
20171119034505 32 222 0.0 0.0 0.00 0.00 0.00 67 1021.3
20171119034005 33 222 0.0 1.0 0.00 0.00 0.00 66 1021.4
20171119033504 33 222 0.0 1.0 0.00 0.00 0.00 65 1021.3
20171119033004 33 222 0.0 0.0 0.00 0.00 0.00 65 1021.3
20171119032504 33 222 0.0 0.0 0.00 0.00 0.00 65 1021.1
20171119032004 34 222 0.0 0.0 0.00 0.00 0.00 64 1021.1
20171119031504 34 222 0.0 1.0 0.00 0.01 0.00 63 1021.2
20171119031005 34 222 0.0 1.0 0.00 0.01 0.00 62 1021.2
20171119030505 34 222 0.0 0.0 0.00 0.01 0.00 61 1021.1
20171119030004 35 222 0.0 0.0 0.00 0.02 0.00 61 1021.1
20171119025504 35 222 0.0 0.0 0.00 0.02 0.00 61 1021.1
20171119025004 35 222 0.0 1.0 0.00 0.03 0.00 60 1021.0
20171119024504 35 222 2.0 3.0 0.00 0.03 0.00 59 1020.9
20171119024008 35 132 0.0 2.0 0.00 0.03 0.00 59 1020.9
20171119023505 36 132 0.0 1.0 0.00 0.03 0.00 58 1020.8
20171119023005 36 132 1.0 3.0 0.00 0.04 0.00 58 1020.8
20171119022504 36 132 2.0 3.0 0.00 0.04 0.00 55 1020.7
20171119022004 36 132 1.0 5.0 0.00 0.04 0.00 54 1020.5
20171119021504 37 154 1.0 3.0 0.00 0.04 0.00 52 1020.6
20171119021004 37 154 1.0 3.0 0.00 0.05 0.00 51 1020.5
20171119020505 38 153 0.0 0.0 0.00 0.06 0.00 49 1020.4
20171119020004 38 153 0.0 1.0 0.00 0.07 0.00 48 1020.7
20171119015504 38 153 1.0 2.0 0.00 0.09 0.00 47 1020.7
20171119015004 39 153 0.0 1.0 0.00 0.10 0.00 46 1020.6
20171119014504 39 153 0.0 2.0 0.00 0.12 0.00 46 1020.6
20171119014004 40 153 1.0 2.0 0.00 0.13 0.00 45 1020.7
20171119013504 40 153 1.0 3.0 0.00 0.13 0.00 44 1020.8
20171119013004 41 153 1.0 2.0 0.00 0.14 0.00 42 1020.8
20171119012504 41 153 1.0 3.0 0.00 0.14 0.00 41 1020.8
20171119012004 41 154 1.0 3.0 0.00 0.15 0.00 38 1020.7
20171119011504 42 153 0.0 3.0 0.00 0.16 0.00 34 1020.7
20171119011005 42 153 1.0 3.0 0.00 0.16 0.00 28 1020.7
20171119010504 42 251 1.0 2.0 0.00 0.17 0.00 25 1020.8
20171119010004 42 249 1.0 6.0 0.00 0.18 0.00 24 1020.6
20171119005504 42 275 1.0 8.0 0.00 0.18 0.00 24 1020.6
20171119005004 42 251 2.0 8.0 0.00 0.18 0.00 25 1020.5
20171119004504 42 215 3.0 7.0 0.00 0.19 0.00 24 1020.4
20171119004005 43 234 1.0 6.0 0.00 0.19 0.00 22 1020.5
20171119003504 43 239 3.0 8.0 0.00 0.20 0.00 21 1020.5
20171119003004 43 285 2.0 8.0 0.00 0.21 0.00 21 1020.3
20171119002504 43 278 6.0 15.0 0.00 0.21 0.00 21 1020.1
20171119002004 43 302 4.0 12.0 0.00 0.21 0.00 20 1020.0
20171119001504 43 295 5.0 14.0 0.00 0.21 0.00 20 1019.8
20171119001005 43 302 6.0 17.0 0.00 0.21 0.00 20 1019.9
20171119000504 43 278 7.0 15.0 0.00 0.21 0.00 20 1019.9
20171119000004 44 293 7.0 14.0 0.00 0.21 0.00 20 1019.9
20171118235504 44 293 7.0 15.0 0.00 0.21 0.00 20 1019.9
20171118235004 44 277 5.0 10.0 0.00 0.21 0.00 20 1019.6
20171118234504 45 269 6.0 18.0 0.00 0.21 0.00 19 1019.6
20171118234004 45 272 7.0 15.0 0.00 0.21 0.00 19 1019.6
20171118233504 45 287 8.0 16.0 0.00 0.21 0.00 20 1019.6
20171118233004 45 300 9.0 18.0 0.00 0.21 0.00 20 1019.5
20171118232505 46 302 8.0 18.0 0.00 0.21 0.00 20 1019.5
20171118232004 46 303 10.0 17.0 0.00 0.21 0.00 20 1019.4
20171118231504 46 308 8.0 14.0 0.00 0.21 0.00 21 1019.4
20171118231004 46 300 9.0 16.0 0.00 0.21 0.00 21 1019.4
20171118230504 46 321 5.0 12.0 0.00 0.21 0.00 21 1019.3
20171118230004 46 304 4.0 10.0 0.00 0.21 0.00 22 1019.7
20171118225504 46 286 5.0 12.0 0.00 0.21 0.00 22 1019.8
20171118225004 46 328 5.0 10.0 0.00 0.21 0.00 22 1019.8
20171118224504 47 318 6.0 12.0 0.00 0.21 0.00 22 1019.6
20171118224004 47 278 5.0 17.0 0.00 0.21 0.00 22 1019.7
20171118223504 47 281 3.0 10.0 0.00 0.21 0.00 21 1019.7
20171118223004 47 295 6.0 13.0 0.00 0.21 0.00 21 1019.7
20171118222505 47 288 7.0 13.0 0.00 0.21 0.00 21 1019.7
20171118222004 48 292 6.0 12.0 0.00 0.21 0.00 20 1019.5
20171118221504 48 296 6.0 12.0 0.00 0.21 0.00 21 1019.4
20171118221005 48 267 5.0 9.0 0.00 0.21 0.00 21 1019.4
20171118220504 48 260 4.0 12.0 0.00 0.21 0.00 22 1019.3
20171118220004 48 290 4.0 7.0 0.00 0.21 0.00 21 1019.2
20171118215504 48 289 5.0 10.0 0.00 0.21 0.00 21 1019.3
20171118215004 48 268 5.0 9.0 0.00 0.21 0.00 21 1019.2
20171118214504 48 253 5.0 10.0 0.00 0.21 0.00 21 1019.3
20171118214005 48 285 2.0 6.0 0.00 0.21 0.00 24 1019.3